RH
28 28 28 30 31 33 33 34 35 33 29 29 30 31 29 28 28 29 29 25 25 27 30 31 31 31 29 27 26 26 26 26 25 24 23 22 20 19 17 17 17 16 17 17 17 18 18 24 26 28 28 30 31 31 31 32 33 33 32 32 31 29 25 26 29 32 33 33 33 33 33 31 29 28 29 27 26 26 26 28 29 29 29 28 27 25 23 22 21 19 18 17 16 15 16 15 16 17 17 17 18 18 19
29 27 28 30 32 33 34 35 35 33 29 29 30 30 29 28 29 29 28 24 24 26 30 31 32 32 31 29 28 28 28 27 26 25 24 23 22 20 19 18 17 17 17 18 18 19 21 25 28 28 29 30 30 31 30 31 31 32 34 32 29 27 25 29 32 33 33 33 33 33 32 29 29 30 30 27 26 25 26 27 27 27 27 26 25 23 22 20 18 17 16 16 15 16 16 17 18 18 19 19 19 19 19
30 27 27 30 32 33 34 34 35 34 29 28 29 29 28 29 30 29 25 23 23 25 30 31 32 33 33 32 31 30 30 28 26 25 25 24 23 22 20 19 18 18 18 18 18 19 21 26 28 30 31 30 30 31 31 31 31 32 34 31 28 27 29 32 33 34 34 34 33 32 31 29 30 32 29 27 25 25 26 26 25 25 25 24 23 21 20 18 17 16 16 16 17 17 17 18 19 20 20 20 19 19 19
31 28 26 29 31 32 32 34 35 35 32 28 28 29 28 29 30 28 24 23 23 25 29 31 32 33 33 33 33 32 30 28 26 25 25 24 24 23 22 21 20 19 19 19 19 19 20 24 27 30 30 30 30 30 31 32 32 32 32 31 30 29 31 33 34 34 34 34 33 32 30 30 31 30 27 26 24 23 24 24 23 23 23 22 20 19 18 17 16 16 16 17 18 19 20 20 20 20 19 19 19 19 19
30 28 26 27 28 30 32 35 36 36 34 29 28 29 28 30 29 28 23 22 23 25 28 30 32 33 34 34 34 33 31 27 25 24 24 24 24 24 23 22 21 20 20 19 19 20 21 22 25 27 26 26 27 28 31 32 32 32 32 32 31 32 34 34 35 35 35 34 34 33 31 32 30 28 26 24 23 22 22 23 23 22 21 20 18 18 17 16 16 16 18 18 19 20 20 20 20 19 19 19 19 19 19
28 26 25 25 26 28 34 36 37 36 36 30 27 27 28 30 30 28 24 23 23 24 28 30 32 32 34 34 35 34 32 27 25 24 24 24 24 24 24 23 22 21 20 20 20 21 25 24 24 24 24 25 26 28 31 32 32 31 31 32 33 34 35 35 35 35 35 35 34 34 32 31 29 27 25 23 22 22 21 22 21 20 19 18 17 17 16 16 16 17 18 19 19 19 19 20 19 18 18 19 19 19 20
24 23 23 23 25 29 36 36 37 36 35 32 27 24 28 30 31 30 26 24 23 25 28 30 31 32 33 34 35 33 32 27 25 24 24 25 25 25 25 24 23 22 21 20 20 21 23 24 24 23 24 24 25 27 32 31 29 29 33 32 33 34 35 35 34 34 35 34 34 34 33 30 28 26 24 23 22 21 20 20 20 19 18 17 17 16 16 16 17 17 18 19 19 19 18 18 18 17 17 18 19 20 20
21 20 20 21 25 31 36 36 37 36 36 32 27 24 25 30 31 30 28 24 24 25 27 29 30 31 32 33 34 34 32 27 24 24 24 25 26 26 26 25 23 23 22 22 22 22 23 23 23 23 23 23 24 25 28 28 27 27 31 31 32 34 36 36 35 35 36 35 35 34 32 29 27 25 23 22 21 19 19 18 18 17 17 17 16 16 16 16 17 18 19 19 19 18 18 17 17 16 16 18 19 20 21
19 18 18 21 26 33 36 37 37 37 35 32 27 24 23 28 30 30 29 27 26 26 26 28 29 30 31 33 33 32 30 26 24 23 24 25 26 27 27 26 25 24 23 23 23 23 22 22 23 23 23 22 23 24 27 30 31 31 31 32 33 35 37 36 36 36 37 36 35 33 30 27 25 23 22 21 20 19 18 18 17 17 17 16 16 16 16 17 18 19 19 19 18 18 18 17 17 17 17 19 20 21 22
18 18 19 24 30 34 36 37 37 36 34 30 27 24 23 25 27 29 30 29 27 26 26 27 28 29 31 32 32 32 30 26 24 24 24 25 26 27 27 27 26 25 24 24 23 23 22 22 22 22 23 23 23 23 25 29 29 28 32 32 33 35 37 38 38 38 38 36 34 31 29 26 24 22 21 20 19 19 18 17 17 17 17 17 16 17 17 18 18 19 20 19 18 18 18 18 18 18 19 20 21 22 23
20 22 25 29 33 35 36 37 37 36 34 29 26 24 23 22 24 27 29 31 30 27 26 27 27 29 31 32 31 30 28 25 24 24 24 25 26 27 27 27 26 25 24 24 23 23 23 23 23 23 23 23 23 22 23 25 27 29 33 34 36 38 38 39 38 37 36 34 32 29 26 24 22 21 21 20 20 19 18 18 17 17 17 17 17 17 18 19 19 20 20 19 19 19 19 19 19 19 21 22 23 23 23
24 28 32 33 34 35 36 37 36 35 33 28 25 23 23 21 22 25 30 31 30 28 26 26 27 28 30 31 30 29 26 24 23 24 24 25 26 26 27 27 26 26 25 24 24 23 23 23 23 23 23 23 23 23 23 25 29 32 33 34 36 39 39 39 38 36 34 32 30 28 25 24 23 22 21 21 21 20 19 18 18 18 17 17 18 18 20 20 20 20 20 19 19 19 19 20 20 21 22 23 23 24 24
27 32 34 34 35 35 36 36 35 33 31 27 25 24 23 21 21 24 29 30 29 27 26 26 26 28 30 30 29 27 24 23 23 24 24 25 25 26 26 27 26 26 25 25 24 24 24 24 23 23 23 23 23 23 23 28 31 32 32 34 37 39 40 39 37 35 32 30 29 27 26 25 24 23 22 22 22 21 20 19 19 18 18 18 18 20 22 21 21 20 20 20 20 20 20 21 21 22 22 22 23 24 24
29 33 34 34 35 35 36 36 34 31 28 26 25 25 24 21 21 22 27 28 28 27 25 25 26 27 29 28 27 25 22 22 23 24 24 24 25 25 26 26 26 26 25 25 25 25 25 24 23 23 23 23 23 23 24 29 32 32 31 34 38 40 40 38 36 34 31 30 28 28 27 26 25 25 24 24 23 22 21 21 20 19 19 18 19 21 22 22 22 21 21 21 20 20 21 21 22 22 22 22 22 23 24
28 34 34 34 34 35 35 34 31 28 25 25 25 25 24 21 20 21 24 26 26 25 24 24 25 26 26 26 25 23 21 22 23 24 24 24 25 25 25 26 26 26 25 25 25 25 25 24 23 23 23 23 23 24 26 33 33 31 31 35 39 40 39 37 35 33 31 30 29 29 29 28 27 27 25 25 25 24 23 22 21 20 19 19 20 22 23 23 22 21 21 21 21 21 21 21 22 22 22 22 23 23 23
27 33 34 34 34 34 33 30 27 24 23 24 24 24 22 20 19 19 20 23 24 24 23 24 24 24 24 24 23 22 21 22 23 24 24 25 24 25 25 25 25 25 25 25 26 25 25 24 23 23 23 24 24 26 29 35 34 32 31 37 40 40 39 36 34 33 31 31 31 31 30 30 29 28 28 26 26 25 24 23 22 21 20 20 21 22 24 24 23 22 22 22 21 21 22 22 22 22 22 22 23 23 23
25 31 33 33 32 30 29 25 23 21 22 23 22 21 20 19 18 18 18 20 21 22 22 22 22 22 22 22 22 21 22 23 24 24 25 25 24 24 24 24 24 24 25 25 26 25 25 24 23 23 24 24 26 30 33 35 33 33 35 39 40 39 37 35 34 32 31 32 33 32 32 32 31 30 29 28 27 26 25 24 23 22 21 21 21 22 24 24 23 23 22 22 22 22 22 22 22 22 23 22 23 23 23
22 27 30 30 29 26 23 21 19 19 20 21 20 19 18 17 17 17 17 18 19 20 20 20 20 21 21 21 22 22 23 24 24 25 25 25 24 24 24 24 24 24 25 25 25 25 24 24 24 24 25 25 28 31 34 34 34 34 36 39 38 37 36 35 34 33 33 33 33 34 34 33 33 32 31 30 29 28 27 25 24 23 22 22 21 22 23 23 24 23 23 22 22 22 22 22 22 23 23 22 23 23 23
21 23 25 26 25 23 19 17 17 18 19 19 19 18 17 16 16 16 16 17 17 18 18 19 20 20 20 21 22 24 24 25 25 25 25 25 25 24 24 24 24 24 25 25 25 25 24 24 24 25 25 27 29 32 36 35 35 35 36 37 37 36 35 35 34 33 34 34 34 35 35 35 34 33 32 31 30 29 28 26 25 24 22 22 21 21 22 23 23 24 23 23 23 22 22 23 23 23 23 23 23 23 22
20 21 23 23 22 20 17 16 16 17 18 18 17 17 16 16 16 16 16 16 17 17 17 18 19 20 20 21 22 24 25 25 26 26 26 25 25 24 24 24 24 24 25 25 25 25 25 25 25 25 26 28 31 34 38 37 35 35 35 36 36 36 35 35 35 35 35 35 35 35 36 36 35 34 33 32 31 30 29 27 26 24 23 22 22 22 22 22 23 24 23 23 23 23 23 23 23 23 24 24 24 23 23
21 23 24 23 21 18 16 15 16 17 18 18 17 16 15 15 15 15 16 16 16 17 17 18 19 19 19 20 22 23 24 25 25 26 26 25 25 24 24 24 24 25 25 25 25 25 25 25 26 26 26 29 32 35 39 38 35 34 35 36 36 36 35 35 36 36 36 36 36 36 37 36 36 35 34 33 32 31 30 28 26 25 23 22 22 22 22 22 23 23 24 24 24 24 24 24 24 24 24 24 24 24 23
25 26 27 24 20 17 15 16 17 18 18 17 17 16 16 15 15 16 16 16 16 16 17 17 18 18 19 20 21 22 23 24 25 25 25 25 25 24 24 24 24 24 25 25 25 26 26 26 26 26 27 29 33 37 39 37 35 34 35 36 36 36 36 36 36 36 36 37 37 37 37 37 36 35 34 33 32 31 30 29 27 25 24 23 22 22 22 22 23 23 23 24 24 24 24 25 25 25 25 24 24 24 23
26 27 25 21 17 15 15 16 17 18 18 17 17 16 16 16 16 16 16 16 16 16 17 17 17 18 18 19 20 21 23 24 24 25 25 25 24 24 24 24 24 25 25 25 26 26 26 26 27 27 27 30 34 37 39 35 34 35 36 37 37 37 36 37 37 37 37 37 38 38 38 37 37 36 34 33 33 32 31 30 28 26 25 24 23 22 22 23 23 23 23 24 24 24 25 25 25 25 26 25 25 24 24
23 22 20 16 14 14 15 17 18 18 18 17 17 16 16 16 16 16 16 16 16 17 17 17 17 17 17 18 19 20 22 23 24 25 25 24 24 24 24 24 24 25 26 26 26 27 27 27 27 28 28 30 34 37 39 36 35 36 37 37 37 37 37 37 38 38 38 38 39 39 39 38 37 36 35 34 33 33 32 31 29 27 26 24 23 23 23 23 23 24 24 24 24 24 25 26 26 26 27 26 25 24 25
20 18 17 13 12 14 16 17 18 18 18 17 17 16 16 16 16 16 17 17 17 17 17 17 17 17 17 17 18 19 21 22 24 24 24 24 24 24 24 25 25 26 26 27 27 27 27 27 28 29 30 31 34 37 38 36 35 36 37 37 37 37 38 38 38 38 39 39 40 40 40 39 38 36 35 34 34 33 33 32 30 28 27 25 24 23 23 23 24 24 24 24 25 25 25 26 26 27 28 27 25 25 24
18 16 13 11 12 14 16 17 17 18 18 18 17 17 17 17 17 17 17 17 17 17 17 17 16 16 17 17 18 19 21 22 23 24 24 24 24 24 24 25 26 27 27 27 28 28 28 29 29 30 32 33 35 36 37 36 36 37 37 37 38 38 38 39 39 39 40 40 41 41 40 39 38 37 36 35 34 34 33 32 31 30 28 27 25 24 24 24 24 25 25 25 25 25 25 26 27 27 28 26 25 25 24
16 14 10 10 12 15 16 17 17 18 18 18 18 18 18 17 17 17 17 17 17 17 17 17 16 16 17 17 18 19 21 22 23 23 24 24 24 25 25 26 27 27 28 28 28 29 29 30 31 32 33 35 36 37 37 37 37 37 38 38 38 38 39 40 40 41 41 41 42 41 41 39 38 37 37 36 35 35 34 33 32 31 29 28 26 26 25 25 25 25 25 26 26 26 26 26 27 27 27 26 25 25 25
13 10 9 11 13 16 17 17 18 18 18 19 19 19 18 18 18 18 18 18 18 18 17 17 17 17 17 18 19 20 21 22 23 24 24 24 25 26 26 27 28 28 28 29 29 30 31 31 32 33 35 36 37 38 38 38 38 38 38 38 39 40 40 41 42 42 43 43 42 42 41 40 39 38 37 37 36 35 35 34 33 32 30 29 28 27 26 26 26 26 26 26 26 26 26 26 27 27 26 26 25 25 25
14 10 10 13 14 16 17 18 18 18 19 19 20 20 20 19 19 19 19 18 18 18 18 17 17 17 18 19 20 21 22 23 24 24 25 25 26 26 27 28 29 29 30 30 31 31 32 33 34 36 38 39 39 40 40 40 40 40 40 40 41 41 42 42 42 43 43 43 43 42 42 40 40 39 38 38 37 36 36 35 34 33 31 30 29 28 27 27 27 27 27 27 27 27 27 27 26 26 26 26 26 26 26
17 14 12 14 16 17 18 18 18 19 19 20 20 21 21 20 20 20 19 19 19 18 18 18 18 18 19 20 21 22 23 24 25 25 26 26 27 27 28 29 29 30 30 31 32 33 34 35 36 38 40 41 41 42 43 43 43 43 43 43 43 42 42 42 43 43 43 43 43 43 42 41 40 40 39 39 38 37 37 36 35 34 32 31 30 29 28 28 28 28 28 28 28 28 27 27 27 27 26 26 26 26 26
20 18 16 16 16 17 18 18 18 19 20 20 21 21 21 21 21 21 20 20 19 19 19 19 19 19 20 21 22 23 25 25 26 26 26 27 27 28 29 29 30 31 31 32 33 34 35 37 38 39 40 41 42 43 44 44 44 44 44 44 43 43 43 43 44 44 44 44 43 43 42 42 41 41 40 40 39 39 38 37 36 35 34 32 31 30 29 29 29 29 29 29 28 28 28 28 27 27 27 27 27 27 27
22 22 20 17 17 17 18 18 19 19 20 20 21 22 22 22 22 21 21 21 20 20 20 20 20 21 22 23 24 25 26 26 27 27 27 28 28 29 29 30 30 31 32 32 34 35 36 38 40 41 42 43 44 44 44 44 44 44 44 44 45 44 45 45 45 45 45 44 44 43 43 42 42 42 41 41 41 40 39 38 37 36 35 34 32 31 31 30 30 30 30 29 29 28 28 28 28 28 27 27 27 28 28
24 25 24 20 18 18 18 19 19 20 20 21 21 22 22 22 22 22 22 21 21 21 21 21 22 22 23 24 25 26 27 27 27 27 28 28 29 29 29 30 30 31 32 33 34 36 38 39 40 42 43 44 44 44 44 45 45 45 45 45 45 46 46 45 46 45 45 45 45 44 44 43 43 43 43 42 42 41 41 40 39 38 37 35 34 33 32 32 31 31 30 30 29 29 29 28 28 28 28 28 28 28 28
26 28 28 24 21 18 18 19 19 20 20 21 21 22 22 22 22 22 22 22 22 22 22 23 23 24 24 26 26 27 27 27 28 28 28 29 29 29 30 30 30 31 32 33 35 37 38 39 41 42 43 44 44 44 45 45 45 45 45 45 46 46 46 46 46 46 46 45 45 45 44 44 44 44 43 43 43 43 42 42 41 40 39 37 36 35 34 33 32 31 30 30 29 29 29 29 29 29 28 28 28 29 29
27 29 31 28 24 20 18 19 20 20 21 21 22 22 23 23 23 23 23 23 23 23 24 24 25 25 26 27 27 28 28 28 28 28 29 29 29 29 30 30 30 31 32 34 35 37 39 40 41 42 43 43 44 44 45 45 45 45 46 46 46 46 46 46 46 46 46 46 45 45 45 45 45 44 44 44 44 44 44 43 43 42 41 39 38 36 35 34 33 32 31 30 30 29 29 29 29 29 29 29 29 29 29
26 29 31 31 27 23 19 19 20 20 21 22 22 23 23 24 24 24 24 24 25 25 25 26 26 27 27 28 28 28 28 28 28 28 29 30 30 30 30 30 31 31 32 34 36 38 39 41 41 42 43 43 44 44 44 45 45 45 46 46 46 46 46 46 46 46 46 46 46 46 45 45 45 45 45 45 45 45 46 45 45 44 43 41 40 38 36 35 34 33 31 31 30 30 30 30 30 29 29 29 28 29 29
25 28 30 32 30 26 21 20 20 21 22 22 23 24 24 25 25 26 26 26 26 26 26 27 27 28 28 29 29 28 27 28 28 29 30 30 30 30 30 30 31 31 33 35 36 39 40 42 42 43 43 43 43 44 44 44 45 45 46 46 46 46 46 46 46 46 46 46 46 46 45 45 45 45 45 46 46 46 47 47 47 46 45 43 41 39 37 36 34 33 32 31 30 30 30 30 30 29 29 29 28 29 30
23 26 28 31 31 29 23 21 21 21 22 23 24 25 26 26 27 27 27 28 28 28 28 28 29 29 29 29 29 28 28 28 28 29 30 30 30 30 30 30 31 31 33 34 37 39 42 42 43 43 43 43 43 44 44 44 44 45 45 46 46 46 46 46 46 46 45 46 46 46 45 45 45 46 46 46 47 48 48 48 48 47 46 44 42 40 38 36 35 34 32 31 31 30 30 30 29 29 29 28 29 30 31
22 24 26 30 32 31 26 22 22 22 23 24 25 26 27 27 28 28 28 29 29 29 29 29 30 30 30 29 29 28 28 28 29 30 31 31 31 31 30 30 31 32 33 35 37 39 42 42 43 43 43 43 43 43 43 44 44 45 45 46 46 46 46 47 47 47 46 46 45 45 45 45 46 46 47 47 48 49 49 49 49 48 47 45 43 40 38 36 35 34 33 32 31 30 30 29 29 29 28 29 29 30 31
22 23 25 29 31 32 28 24 23 23 24 25 26 27 28 28 29 29 30 30 30 30 30 30 30 30 30 29 29 28 28 28 29 30 31 31 31 32 31 31 31 32 34 36 38 40 42 43 42 42 42 42 42 43 43 43 44 44 45 45 46 46 46 46 46 47 46 46 46 45 45 46 46 47 47 48 49 50 50 50 50 49 47 45 43 41 38 37 35 34 33 32 31 30 30 29 29 29 29 29 30 30 31
23 24 25 28 31 32 30 26 24 24 25 26 27 28 29 30 30 31 31 31 31 31 31 30 31 31 30 29 28 28 28 29 29 30 30 30 32 32 32 31 32 33 35 37 39 40 42 42 42 42 42 42 42 42 42 43 43 44 45 45 46 46 46 46 46 46 46 46 46 46 46 46 47 47 48 49 50 50 51 51 50 49 48 46 44 41 39 37 36 35 34 32 31 30 29 29 29 29 29 30 30 31 32
24 25 26 29 32 33 31 27 25 25 26 27 28 29 30 30 31 31 32 32 32 31 31 31 31 30 30 29 28 28 28 29 29 30 30 31 32 33 33 32 33 34 36 38 39 41 42 42 42 41 41 41 41 41 42 42 43 43 44 45 46 46 46 46 46 45 46 46 46 46 46 47 47 48 49 50 51 51 51 51 51 50 48 46 44 42 39 37 36 35 34 33 31 30 29 29 29 29 30 31 31 32 32
26 27 28 31 32 33 30 27 26 26 27 28 29 30 30 31 31 32 32 32 32 32 31 31 31 30 30 29 28 28 28 30 31 31 31 32 32 33 33 33 34 36 37 39 40 41 42 42 41 41 41 41 41 41 41 42 42 43 44 45 45 46 45 45 45 45 45 45 46 47 47 48 48 49 50 50 51 51 52 52 51 50 48 46 44 42 40 38 36 35 34 33 31 30 29 29 30 30 31 32 32 32 32
27 28 30 32 32 32 29 27 27 27 27 28 29 30 31 32 32 32 33 33 33 33 32 32 31 30 29 29 29 29 29 32 35 36 33 33 33 35 35 35 36 37 38 39 40 41 42 41 41 40 40 40 40 40 41 41 42 43 44 45 45 45 45 45 45 45 45 46 46 47 48 49 49 49 50 51 51 52 52 52 51 50 48 46 44 42 40 38 36 35 34 33 32 31 30 30 31 31 32 33 33 33 33
27 29 30 31 31 30 28 27 27 28 28 29 30 30 31 32 32 33 34 34 34 34 34 33 32 31 30 29 29 29 30 34 37 37 35 34 35 37 38 37 37 38 39 40 40 41 41 41 40 40 39 39 39 40 40 41 42 43 44 45 45 45 45 45 45 45 45 46 47 48 49 49 50 50 50 51 51 51 51 51 51 50 48 46 44 42 40 38 37 35 34 33 32 31 30 31 32 32 33 34 34 33 33
27 28 29 29 29 29 28 28 28 29 29 29 30 31 32 32 33 33 34 35 36 36 36 35 33 32 31 30 29 29 30 32 33 35 35 35 36 38 40 39 39 38 39 40 40 40 40 40 39 39 38 39 39 39 40 41 42 43 44 44 44 44 45 45 45 46 46 47 48 49 49 49 50 50 51 51 51 51 51 50 50 49 48 45 43 41 39 38 37 36 35 33 32 31 31 32 33 34 34 34 34 34 34
28 29 29 29 29 29 29 29 30 30 30 30 31 31 32 32 33 34 35 36 37 37 37 36 35 34 32 31 30 30 30 31 32 33 35 36 37 38 39 40 39 39 39 39 39 38 38 38 38 38 38 38 39 39 40 41 43 43 44 44 44 44 45 45 46 46 47 48 48 49 49 50 50 51 51 51 51 51 51 50 49 48 47 45 43 41 39 38 37 36 35 34 33 32 32 33 34 35 35 35 35 35 35
30 30 30 30 30 31 31 31 32 32 32 32 32 32 33 33 33 34 35 36 37 37 37 37 37 36 35 33 32 31 30 31 32 34 36 39 39 39 40 40 40 39 38 38 37 37 37 37 37 37 38 38 39 40 41 42 43 43 43 44 44 45 45 46 46 47 48 48 49 49 50 50 50 51 51 51 51 51 50 49 48 47 46 44 42 40 39 38 37 36 36 34 33 32 32 33 34 35 36 36 36 35 35
32 32 33 33 33 34 34 34 34 34 34 33 33 33 33 33 33 33 34 35 36 36 37 37 37 37 37 36 35 33 32 32 33 35 37 40 42 43 42 42 42 41 39 38 37 37 37 37 37 37 38 38 39 40 41 42 42 43 43 44 45 45 46 46 47 48 48 49 49 50 50 50 51 51 51 51 51 51 50 49 48 47 45 43 42 40 39 38 37 37 36 35 34 33 33 34 35 36 36 36 36 36 36
33 34 35 36 36 36 37 37 37 36 36 35 35 34 34 34 34 33 33 34 35 35 36 36 37 37 38 39 40 39 35 33 34 36 38 40 41 43 43 43 43 43 43 41 39 38 37 37 37 37 37 38 39 40 41 42 43 43 44 44 45 46 46 47 48 48 49 49 49 50 50 51 51 52 52 51 51 50 50 49 48 46 45 43 42 40 39 39 38 38 37 36 34 34 33 35 36 37 37 37 37 37 37
33 35 36 36 37 38 38 39 38 38 38 37 37 36 36 35 34 34 34 34 34 35 36 37 37 37 37 39 41 41 38 35 35 37 39 41 42 43 43 44 44 44 42 43 42 40 37 37 37 37 37 38 39 40 41 42 43 43 44 44 45 46 47 48 48 49 49 50 50 50 51 51 51 52 52 52 51 51 50 49 47 46 45 44 43 42 41 40 39 38 38 36 35 34 34 35 36 37 37 37 37 37 37
34 35 36 36 36 37 38 38 39 39 39 39 39 38 38 37 36 35 35 35 35 36 37 39 39 39 38 38 39 39 37 36 37 38 40 42 43 43 43 44 43 42 41 41 42 42 40 38 37 37 37 38 39 40 41 42 43 44 44 45 46 47 47 48 49 50 50 50 50 50 51 51 52 52 52 52 52 51 50 48 47 46 45 44 43 43 42 41 40 39 38 37 36 35 34 35 37 38 38 38 38 38 38
34 36 37 36 36 36 37 38 39 40 40 41 41 40 40 39 38 37 36 36 37 37 38 39 40 41 40 39 39 38 38 38 39 40 40 42 43 44 43 44 43 42 42 43 42 41 40 41 41 40 39 39 40 41 42 43 43 44 45 46 46 47 48 49 49 50 50 50 50 50 51 51 52 53 53 53 52 51 50 48 47 46 45 45 44 44 43 42 41 40 39 38 37 36 35 36 37 38 39 38 38 38 39
33 35 37 37 37 37 36 37 38 39 41 41 42 42 41 40 40 39 38 38 38 39 40 40 41 42 43 42 42 41 40 40 40 41 42 43 44 45 44 45 45 44 44 43 42 40 38 40 40 41 42 40 41 41 42 43 44 45 46 46 47 47 48 49 50 50 50 50 50 50 51 51 52 53 53 53 52 51 49 48 46 46 45 45 45 45 44 43 42 41 41 39 38 36 35 36 38 39 39 39 39 39 39
31 34 37 38 38 38 37 37 38 39 40 41 42 42 42 42 41 41 40 40 40 40 41 41 42 42 43 45 45 44 43 41 41 42 43 44 45 45 46 46 47 46 45 44 42 40 38 41 42 42 43 42 42 43 44 44 45 46 47 47 47 48 48 49 50 50 50 50 50 50 51 52 53 53 54 53 52 50 48 47 46 45 45 45 45 45 44 44 43 42 41 40 38 37 36 37 39 40 40 39 39 39 39
31 34 36 38 39 39 39 39 38 39 40 41 42 43 43 42 42 41 41 40 41 41 41 42 42 42 43 43 44 44 45 43 43 43 44 45 45 46 46 47 47 46 44 42 41 41 42 43 43 42 42 44 45 46 47 47 47 47 48 47 47 48 48 50 51 51 50 50 50 51 51 53 54 54 54 52 51 48 47 46 46 46 46 46 46 46 45 44 44 43 42 41 39 37 37 38 40 40 41 40 40 40 40
30 33 36 37 38 39 40 40 40 40 39 40 41 42 42 42 42 42 41 41 41 41 42 42 42 42 42 42 43 43 44 44 43 43 43 45 45 46 46 47 47 46 45 44 43 43 44 45 45 44 43 44 45 47 48 49 49 49 48 48 47 47 48 50 51 51 51 51 51 51 52 53 54 55 54 52 49 47 45 45 46 46 46 47 46 46 46 45 45 44 43 41 39 37 37 39 41 41 41 41 40 40 40
29 32 35 37 38 39 39 40 41 41 40 40 40 41 42 42 42 42 41 41 41 41 41 42 42 42 42 42 43 43 43 44 43 43 42 43 44 45 45 45 46 46 46 46 46 46 46 46 46 45 45 45 45 46 48 49 50 50 49 49 48 48 48 49 50 51 51 51 52 52 53 55 55 55 53 50 48 46 45 45 46 46 47 47 47 47 46 46 45 45 43 41 39 37 37 40 41 42 42 41 41 40 40
28 30 33 36 37 39 39 40 40 41 41 41 41 41 41 41 41 41 41 41 41 41 41 41 42 42 42 42 42 43 43 43 44 43 42 41 42 43 43 43 44 44 44 45 45 45 46 47 46 46 46 46 47 47 47 48 49 50 50 49 48 48 48 49 49 50 51 51 52 53 55 56 57 56 53 49 47 45 45 45 46 46 46 46 47 47 47 47 46 45 44 41 39 38 38 41 42 43 42 42 41 41 40
28 29 32 34 37 38 39 39 40 41 42 41 41 41 41 40 40 40 40 40 40 40 40 41 41 42 42 42 42 42 43 43 43 43 43 42 41 40 41 41 42 42 43 43 43 44 45 46 47 47 47 48 48 47 46 47 47 48 48 49 49 49 49 49 49 50 51 51 52 54 56 57 57 56 52 48 46 44 44 45 45 46 46 46 47 47 47 48 47 46 44 41 39 38 40 42 43 44 43 42 41 41 41
27 28 30 32 34 36 37 38 38 39 40 41 41 41 41 40 40 39 39 39 39 39 39 40 40 41 41 41 41 42 42 42 42 42 42 41 41 41 39 39 40 40 41 41 42 42 43 44 45 46 47 47 47 47 46 46 46 46 46 47 48 49 50 50 50 50 50 51 53 54 57 58 57 55 51 47 45 44 44 44 45 45 45 46 47 47 48 48 47 46 43 40 39 39 42 44 44 44 43 42 42 41 41